Time,TemperatureF,DewpointF,PressureIn,WindDirection,WindDirectionDegrees,WindSpeedMPH,WindSpeedGustMPH,Humidity,HourlyPrecipIn,Conditions,Clouds,dailyrainin,SoftwareType,DateUTC
2013-04-19 00:00:00,21.0,-99.9,-100.00,West,268,91.0,-999.0,-999,-99.99,,,0.01,,2013-04-19 06:00:00,
2013-04-19 01:00:00,21.0,-99.9,-100.00,North,-999,-999.0,-999.0,-999,-99.99,,,0.01,,2013-04-19 07:00:00,
2013-04-19 01:52:00,21.0,-99.9,-100.00,North,-999,-999.0,-999.0,-999,-99.99,,,0.01,,2013-04-19 07:52:00,
2013-04-19 02:00:00,20.0,-99.9,-100.00,WNW,291,100.0,-999.0,-999,-99.99,,,0.01,,2013-04-19 08:00:00,
2013-04-19 03:00:00,21.0,-99.9,-100.00,WNW,297,100.0,-999.0,-999,-99.99,,,0.01,,2013-04-19 09:00:00,
2013-04-19 04:00:00,22.0,-99.9,-100.00,WNW,288,97.0,-999.0,-999,-99.99,,,0.01,,2013-04-19 10:00:00,
2013-04-19 05:00:00,22.0,-99.9,-100.00,West,275,94.0,-999.0,-999,-99.99,,,0.01,,2013-04-19 11:00:00,
2013-04-19 06:00:00,22.0,-99.9,-100.00,West,271,91.0,-999.0,-999,-99.99,,,0.01,,2013-04-19 12:00:00,
2013-04-19 07:00:00,24.0,-99.9,-100.00,West,266,91.0,-999.0,-999,-99.99,,,0.01,,2013-04-19 13:00:00,
2013-04-19 08:00:00,26.0,-99.9,-100.00,WSW,241,85.0,-999.0,-999,-99.99,,,0.01,,2013-04-19 14:00:00,
2013-04-19 09:00:00,30.0,-99.9,-100.00,SW,215,79.0,-999.0,-999,-99.99,,,0.01,,2013-04-19 15:00:00,
2013-04-19 10:00:00,32.0,-99.9,-100.00,SSW,200,70.0,-999.0,-999,-99.99,,,0.00,,2013-04-19 16:00:00,
2013-04-19 11:00:00,36.0,-99.9,-100.00,North,-999,-999.0,-999.0,-999,-99.99,,,0.00,,2013-04-19 17:00:00,
2013-04-19 12:00:00,38.0,-99.9,-100.00,South,179,64.0,-999.0,-999,-99.99,,,0.00,,2013-04-19 18:00:00,
2013-04-19 13:00:00,38.0,-99.9,-100.00,South,172,61.0,-999.0,-999,-99.99,,,0.00,,2013-04-19 19:00:00,
2013-04-19 14:00:00,40.0,-99.9,-100.00,SSE,166,60.0,-999.0,-999,-99.99,,,0.00,,2013-04-19 20:00:00,
2013-04-19 15:00:00,38.0,-99.9,-100.00,South,171,65.0,-999.0,-999,-99.99,,,0.00,,2013-04-19 21:00:00,
2013-04-19 16:00:00,38.0,-99.9,-100.00,South,184,67.0,-999.0,-999,-99.99,,,0.00,,2013-04-19 22:00:00,
2013-04-19 17:00:00,37.0,-99.9,-100.00,North,-999,-999.0,-999.0,-999,-99.99,,,0.00,,2013-04-19 23:00:00,
2013-04-19 18:00:00,36.0,-99.9,-100.00,SSW,199,70.0,-999.0,-999,-99.99,,,0.00,,2013-04-20 00:00:00,
2013-04-19 19:00:00,34.0,-99.9,-100.00,SW,220,77.0,-999.0,-999,-99.99,,,0.00,,2013-04-20 01:00:00,
2013-04-19 20:00:00,33.0,-99.9,-100.00,SW,229,79.0,-999.0,-999,-99.99,,,0.00,,2013-04-20 02:00:00,
2013-04-19 21:00:00,32.0,-99.9,-100.00,WSW,242,84.0,-999.0,-999,-99.99,,,0.00,,2013-04-20 03:00:00,
2013-04-19 22:00:00,33.0,-99.9,-100.00,WSW,249,85.0,-999.0,-999,-99.99,,,0.00,,2013-04-20 04:00:00,
2013-04-19 23:00:00,33.0,-99.9,-100.00,WSW,249,85.0,-999.0,-999,-99.99,,,0.00,,2013-04-20 05:00:00,